sat.trackr.live / text

‹ back to catalog

STARLINK-30325

NORAD 57717 · 2023-129V

PAYLOAD ACTIVE UNKNOWN

§ Identity

Operator
Country
US
Launch date
2023-08-27
Launch site
AFETR
Launch vehicle
Mass (kg)
RCS (m²)

Purposes: comms

External: N2YO · Heavens-Above · Gunter

§ Orbital elements

Epoch: 2026-05-25T01:53:52.518048Z

Period
94.27 min
Inclination
43.0018°
Eccentricity
0.0001313
Mean motion
15.27574500 rev/d
Perigee alt
482.2 km
Apogee alt
484.0 km
Semi-major
6,861.2 km
B*
8.2944e-6
RAAN
46.6379°
Arg perigee
263.8595°
Mean anomaly
96.2107°
Rev number
15,236

§ Raw data

STARLINK-303251 57717U 23129V   26145.07908007 -.00000034  00000+0  82944-5 0  99922 57717  43.0018  46.6379 0001313 263.8595  96.2107 15.27574500152364

JSON: /api/v1/satellites/57717 · /tle

For live sub-satellite position, see the globe view (requires WebGL).

§ Visibility from observer

Set your observer location to see the next 7 days of passes ≥ 10°. The values pass through the URL so the page stays shareable.

No JS? Fill the form by hand. The geolocation button needs JavaScript.